Other Public Products
Issued by NWS Charleston, SC

Current Version | Previous Version | Graphics & Text | Print | Product List | Glossary On
Versions: 1 2 3 4 5 6 7 8 9 10 11 12 13 14 15 16 17 18 19 20 21 22 23 24 25 26 27 28 29 30 31 32 33 34 35 36 37 38 39 40 41 42 43 44 45 46 47 48 49 50
489 FPUS82 KCHS 192012 OPUCHS TEST...KCHS/KSAV Gateway Observations...TEST National Weather Service Charleston SC 300 PM EST SUN NOV 19 2017 NOTE: "fair" indicates few or no clouds below 12,000 feet with no significant weather and/or obstructions to visibility. SCZ050-WAZ558-NCZ071-TXZ119-213-PAZ071-DCZ001-FLZ074-172-MI076- NYZ176-178-MAZ016-IL014-TNZ027-NJZ106-GAZ044-MD014-192100- ...Gateway Observations for Charleston International... CITY SKY/WX TMP DP RH WIND PRES REMARKS Chas Airport MOSUNNY 66 42 41 W13 29.84S Seattle CLOUDY 50 35 56 S6 29.82F Charlotte MOSUNNY 58 27 30 NW13G22 29.89S Dallas DFW PTSUNNY 62 26 25 VRB7 30.27F Dallas Love PTSUNNY 63 25 23 VRB6 30.28F Philladelphia PTSUNNY 51 28 41 W22G35 29.64R Wash National PTSUNNY 50 28 42 W24G33 29.77R Baltimore PTSUNNY 47 28 47 W17G26 29.74R Miami MOSUNNY 82 59 45 W7 29.89F Detroit CLOUDY 35 25 66 W18G25 29.87R WCI 24 Newark PTSUNNY 50 29 44 NW25 29.57R Laguardia PTSUNNY 49 32 52 NW20G35 29.56R J F K PTSUNNY 49 30 48 NW26G35 29.56R Boston Logan MOSUNNY 47 30 51 W25G38 29.32R Ft. Lauderdale SUNNY 80 61 52 W8 29.88F Chicago O`Hare MOSUNNY 35 16 45 NW15 30.03S WCI 25 Chicago Midway MOSUNNY 35 18 49 W14G21 30.04S WCI 26 Houston Bush MOSUNNY 65 32 29 N10G21 30.24F Houston Hobby MOSUNNY 64 30 27 NE9 30.24F Nashville SUNNY 47 18 31 NW10 30.14F Atlanta MOSUNNY 54 33 45 NW16G25 30.01S $$ GAZ044-118-TXZ119-213-NCZ071-DCZ001-MDZ014-506-PAZ021-071-NJZ106- NYZ176-178-MAZ106-OHZ011-021-055-MIZ076-KYZ091-ILZ014-INZ047- MNZ060-ONZ431-192100- ...Gateway Observations for Savannah International... CITY SKY/WX TMP DP RH WIND PRES REMARKS Savannah Arpt MOSUNNY 66 42 41 NW14 29.89F Atlanta MOSUNNY 54 33 45 NW16G25 30.01S Charlotte MOSUNNY 58 27 30 NW13G22 29.89S Dallas DFW PTSUNNY 62 26 25 VRB7 30.27F Houston Bush MOSUNNY 65 32 29 N10G21 30.24F Wash National PTSUNNY 50 28 42 W24G33 29.77R Wash Dulles PTSUNNY 46 27 47 NW23G31 29.78R Baltimore PTSUNNY 47 28 47 W17G26 29.74R Philadelphia PTSUNNY 51 28 41 W22G35 29.64R Newark PTSUNNY 50 29 44 NW25 29.57R Laguardia PTSUNNY 49 32 52 NW20G35 29.56R J F K PTSUNNY 49 30 48 NW26G35 29.56R Boston MOSUNNY 47 30 51 W25G38 29.32R Pittsburg FLURRIES 39 28 64 W12 29.81R WCI 32 Akron FLURRIES 36 27 69 W14G25 29.84R WCI 27 Cleveland CLOUDY 38 28 67 W17G29 29.87R WCI 28 Cincinnati CLOUDY 37 28 70 W17 30.03R WCI 27 Columbus CLOUDY 38 30 73 W20 29.95R WCI 28 Detroit CLOUDY 35 25 66 W18G25 29.87R WCI 24 Chicago O`Hare MOSUNNY 35 16 45 NW15 30.03S WCI 25 Minneapolis MOSUNNY 38 21 50 SW9 29.94F WCI 31 Indianapolis PTSUNNY 32 22 66 W18G26 30.09S WCI 20 Toronto Canada PTSUNNY 37 27 65 NW23G31 29.67 WCI 26 $$

USA.gov is the U.S. government's official web portal to all federal, state and local government web resources and services.